Location: Karcze
(52.0945°N, 22.4786°E)
Time: 02:16:15
(UTC+00:00)

A-11 Canister half - Pass Details

Date: 08 August 2021
Orbit: 1514 x 1685 km, 47.2° (Epoch: 16 September)

Event Time Altitude Azimuth Distance (km) Brightness Sun altitude
Rises 20:25:05 0° 287° (WNW) 4,887 12.4 -16.4°
Reaches altitude 10° 20:28:56 10° 275° (W) 3,918 11.6 -16.7°
Maximum altitude 20:36:27 25° 226° (SW) 2,932 10.3 -17.3°
Enters shadow 20:42:08 15° 185° (S) 3,539 10.4 -17.7°
Drops below altitude 10° 20:44:03 10° 177° (S) 3,942 - -17.8°
Sets 20:47:58 0° 165° (SSE) 4,923 - -18.1°
